Location: Bodest
(46.3000°N, 22.5667°E)
Time: 02:07:14
(UTC+00:00)

FENGYUN 1C DEB - Pass Details

Date: 08 April 2023
Orbit: 806 x 916 km, 98.8° (Epoch: 29 May)

Event Time Altitude Azimuth Distance (km) Brightness Sun altitude
Rises 19:08:26 0° 203° (SSW) 3,532 ? -19.9°
Reaches altitude 10° 19:11:25 10° 218° (SW) 2,586 ? -20.4°
Maximum altitude 19:15:49 22° 268° (W) 1,848 ? -21.0°
Drops below altitude 10° 19:20:11 10° 318° (NW) 2,556 ? -21.6°
Sets 19:23:08 0° 334° (NNW) 3,481 ? -22.0°
